Flag for Germany Weather past 2 weeks in Mönchengladbach, North Rhine-Westphalia, Germany

Now
73 °F

Passing clouds.


Feels Like: 76 °F
Forecast: 65 / 81 °F
Wind: 7 mph from North

Location: Monchengladbach Airport

Current Time: Jul 22, 2014 at 12:04:17 PM

Latest Report: Jul 22, 2014 at 11:20 AM


Visibility: N/A

Pressure: 30.04 "Hg

Humidity: 69%

Dew point: 63 °F

Location of MönchengladbachLocation

Historic Weather in Mönchengladbach — Graph

°F

Mönchengladbach temperature yesterday

Maximum temperature yesterday: 70 °F (at 12:20 PM)
Minimum temperature yesterday: 64 °F (at 9:50 AM)
Average temperature yesterday: 68 °F

Past Weeks' High & Low Weather Summary

 TemperatureHumidityPressure
High91 °F (Jul 19, 4:50 PM)100% (Jul 8, 7:50 AM)30.18 "Hg (Jul 8, 7:50 AM)
Low55 °F (Jul 9, 7:50 AM)29% (Jul 19, 12:50 PM)29.65 "Hg (Jul 9, 4:50 PM)
Average71 °F78%29.93 "Hg
* Reported Jul 7 10:20 AM — Jul 22 10:50 AM, Mönchengladbach, Weather by CustomWeather, © 2014

Note: Actual official high and low records may vary slightly from our data, if they occured in-between our weather recording intervals... More about our weather records

Advertising

Mönchengladbach weather history for previous 24 hours

 ConditionsComfort  
Time TempWeatherWind HumidityBarometerVisibility
10:50 AM
Jul 22
72 °FSunny.6 mph73%30.04 "Hg10 mi
10:20 AM70 °FScattered clouds.8 mph83%30.04 "Hg5 mi
9:50 AM70 °FPassing clouds.7 mph88%30.04 "Hg4 mi
9:20 AM70 °FFog.8 mph88%30.01 "Hg2 mi
8:50 AM68 °FFog.6 mph94%30.01 "Hg2 mi
8:20 AM68 °FFog.7 mph94%30.01 "Hg1 mi
7:50 AM68 °FFog.7 mph94%30.01 "Hg1 mi
7:50 PM
Jul 21
68 °FPassing clouds.10 mph94%29.95 "HgN/A
7:20 PM68 °FPassing clouds.9 mph94%29.95 "Hg5 mi
6:50 PM68 °FPassing clouds.9 mph94%29.95 "Hg5 mi
6:20 PM68 °FPassing clouds.8 mph94%29.92 "Hg5 mi
5:50 PM68 °FPassing clouds.7 mph100%29.92 "Hg6 mi
5:20 PM68 °FPassing clouds.8 mph94%29.92 "Hg5 mi
4:50 PM68 °FDrizzle. Fog.7 mph94%29.92 "Hg3 mi
4:20 PM68 °FPassing clouds.8 mph94%29.92 "Hg4 mi
3:50 PM70 °FPassing clouds.8 mph83%29.92 "HgN/A
3:20 PM70 °FPassing clouds.10 mph83%29.92 "Hg5 mi
2:50 PM70 °FPassing clouds.8 mph88%29.92 "Hg5 mi
2:20 PM70 °FPassing clouds.8 mph88%29.92 "HgN/A
1:50 PM70 °FPartly sunny.8 mph88%29.92 "HgN/A
1:20 PM70 °FPartly sunny.6 mph88%29.92 "HgN/A
12:50 PM70 °FBroken clouds.6 mph94%29.92 "HgN/A
12:20 PM70 °FLight rain. Fog.6 mph88%29.89 "Hg5 mi
Weather by CustomWeather, © 2014

See weather overviewHow to use our weather pages